{"data":{"norad_id":65017,"epoch":"2026-05-24T20:10:11.567424Z","epoch_age_seconds":84735,"freshness":"FRESH","line1":"1 65017U 25161C   26144.84041166 -.00002408  00000+0 -69236-4 0  9996","line2":"2 65017  53.1582 300.1503 0000888  64.7351 295.3742 15.30192353 47103","mean_motion":15.30192353,"eccentricity":8.88e-5,"inclination_deg":53.1582,"raan_deg":300.1503,"arg_perigee_deg":64.7351,"mean_anomaly_deg":295.3742,"bstar":-6.9236e-5,"rev_number":4710,"period_min":94.105815989527,"perigee_km":474.62932238673,"apogee_km":475.84648176933,"semimajor_km":6853.374902078,"source":"CELESTRAK","updated_at":"2026-05-25T13:38:20.664856Z"}}